AirNav   $300 off a Bose A20 aviation headset
 
 323 users online  

O05 Rogers Field Airport
Chester, California, USA

GOING TO CHESTER?


FAA INFORMATION EFFECTIVE 28 FEBRUARY 2019

Location

FAA Identifier: O05
Lat/Long: 40-16-56.5000N / 121-14-28.2000W
40-16.941667N / 121-14.470000W
40.2823611 / -121.2411667
(estimated)
Elevation: 4534.4 ft. / 1382.1 m (surveyed)
Variation: 17E (1985)
From city: 2 miles SW of CHESTER, CA
Time zone: UTC -8 (UTC -7 during Daylight Saving Time)
Zip code: 96020

Airport Operations

Airport use: Open to the public
Activation date: 04/1940
Control tower: no
ARTCC: OAKLAND CENTER
FSS: RANCHO MURIETA FLIGHT SERVICE STATION
NOTAMs facility: RIU (NOTAM-D service available)
Attendance: 0800-DUSK
Wind indicator: lighted
Segmented circle: yes
Lights: ACTVT MIRL RY 16/34 & PAPI RYS 16 & 34 - CTAF.
Beacon: white-green (lighted land airport)
Operates sunset to sunrise.

Airport Communications

CTAF/UNICOM: 122.8
WX AWOS-3: 118.275 (530-258-2860)

Airport Services

Fuel available: 100LL JET-A
Parking: tiedowns
Airframe service: NONE
Powerplant service: NONE
Bottled oxygen: NONE
Bulk oxygen: NONE

Runway Information

Runway 16/34

Dimensions: 5020 x 100 ft. / 1530 x 30 m
Surface: asphalt, in good condition
Weight bearing capacity: 
Single wheel: 60.0, ESTIMATED BY OWNER.
Double wheel: 110.0
Runway edge lights: medium intensity
Gradient: N
RUNWAY 16  RUNWAY 34
Latitude: 40-17.352133N40-16.531320N
Longitude: 121-14.534187W121-14.406538W
Elevation: 4534.4 ft.4513.5 ft.
Gradient: 0.4%0.4% UP
Traffic pattern: leftright
Markings: nonprecision, in good conditionnonprecision, in good condition
Visual slope indicator: 2-light PAPI on left (3.00 degrees glide path)2-light PAPI on left (3.00 degrees glide path)
Runway end identifier lights: nono
Touchdown point: yes, no lightsyes, no lights
Obstructions: 50 ft. trees, 1200 ft. from runway, 375 ft. left of centerline, 20:1 slope to clear67 ft. trees, 2500 ft. from runway, 350 ft. left of centerline, 34:1 slope to clear

Airport Ownership and Management from official FAA records

Ownership: Publicly-owned
Owner: COUNTY OF PLUMAS
198 ANDY'S WAY
QUINCY, CA 95971-7007
Phone 530-283-6299
Manager: DONY SAWCHUK
198 ANDY'S WAY
QUINCY, CA 95971-7007
Phone 530-283-6299
AIRPORT FBO PHONE 530-258-3616.

Airport Operational Statistics

Aircraft operations: avg 43/day *
54% transient general aviation
41% local general aviation
4% air taxi
* for 12-month period ending 31 December 2016

Additional Remarks

E93 TWO 40' DIAMETER CONC HELIPADS /USFS/ ON FLD.
A91 PLUS SEVERAL FIRE BOMBERS DURING SUMMER.

Instrument Procedures

There are no published instrument procedures at O05.

Some nearby airports with instrument procedures:

KSVE - Susanville Municipal Airport (31 nm E)
KCIC - Chico Municipal Airport (41 nm SW)
KRBL - Red Bluff Municipal Airport (47 nm W)
O02 - Nervino Airport (49 nm SE)
KAHC - Amedee Army Airfield (50 nm E)
 
Loc | Ops | Rwys | IFR | FBO | Links
Com | Nav | Svcs | Stats | Notes
Area around O05 (Rogers Field Airport)
 
Road maps at: MapQuest Bing Google
 
Aerial photo
WARNING: Photo may not be current or correct
Aerial photo of O05 (Rogers Field Airport)
Do you have a better or more recent aerial photo of Rogers Field Airport that you would like to share? If so, please send us your photo.

 
Sectional chart

 
Airport distance calculator
Flying to Rogers Field Airport? Find the distance to fly.

From to O05

Sunrise and sunset
Times for 21-Mar-2019
 Local
(UTC-7)
 Zulu
(UTC)
Morning civil twilight06:4013:40
Sunrise07:0814:08
Sunset19:1702:17
Evening civil twilight19:4402:44

Current date and time
Zulu (UTC)  21-Mar-2019 07:08:25
Local (UTC-7)  21-Mar-2019 00:08:25
 
METAR
KSVE 
31nm E 
210655Z AUTO 31008KT 10SM CLR 04/00 A3002 RMK AO2
KCIC 
40nm SW 
210655Z AUTO 00000KT 10SM OVC055 12/09 A3007 RMK AO1
KO54 
47nm W 
210655Z AUTO 00000KT 8SM FEW010 OVC040 03/03 A3008 RMK AO1
KRBL 
47nm W 
210654Z AUTO 34006KT 10SM SCT034 10/08 A3007 RMK AO2 SLP182 T01000078
TAF
KRBL 
47nm W 
210521Z 2106/2206 31006KT P6SM OVC035 FM211900 17006KT P6SM SCT250
NOTAMs
Click for the latest NOTAMs
NOTAMs are issued by the DoD/FAA and will open in a separate window not controlled by AirNav.

 

 
 

FBO, Fuel Providers, and Aircraft Ground Support

  
 Business Name 
 
 Contact 
 
 Services / Description 
 
Fuel Prices
 
Comments
  
Mt. Lassen Aviation 530-258-3616
no information available

If you are affiliated with Mt. Lassen Aviation and would like to show here your services, contact info, web link, logo, and more, click here
100LL Jet A
FS --- $5.43 
SS $4.98 --- 
 Updated 14-Mar-2019
 
   2 read write
FS=Full service
SS=Self service
Update Fuel Prices
 

Would you like to see your business listed on this page?

 If your business provides an interesting product or service to pilots, flight crews, aircraft, or users of the Rogers Field Airport, you should consider listing it here.  To start the listing process, click on the button below
 
Add a business
 

Other Pages about Rogers Field Airport

Update a link
 
Copyright © AirNav, LLC. All rights reserved. Privacy Policy  Contact